Location: Madrid
(40.4000°N, 3.6830°W)
Time: 08:44:01
(UTC+02:00)

ISS - Pass Details

Date: 19 July 2017
Orbit: 400 x 408 km, 51.6° (Epoch: 21 July)

Event Time Altitude Azimuth Distance (km) Brightness Sun altitude
Exits shadow 02:10:58 11° 35° (NE) 1,376 -0.6 -28.7°
Drops below altitude 10° 02:11:07 10° 37° (NE) 1,435 -0.5 -28.7°
Sets 02:13:24 0° 48° (NE) 2,316 0.5 -28.7°
